Canadian, TX

9:41 PM CST on December 11, 2019 (GMT -0600)
Hemphill County

Weather History for KHHF - October, 2019

Change the Weather History Date:

Monday, October 28, 2019

  Actual Average (KPPA) Record (KPPA)
Temperature  
Mean Temperature 36 °F -  
Max Temperature 39 °F 65 °F 89 °F (2016)
Min Temperature 30 °F 40 °F 26 °F (1970)
Degree Days  
Heating Degree Days 30    
Moisture  
Dew Point 25 °F    
Average Humidity 66    
Maximum Humidity 88    
Minimum Humidity 48    
Precipitation  
Precipitation 0.00 in - - ()
Sea Level Pressure  
Sea Level Pressure 30.11 in    
Wind  
Wind Speed 7 mph ()    
Max Wind Speed 15 mph    
Max Gust Speed 18 mph    
Visibility 10.0 miles    
Events      
Averages and records for this station are not official NWS values.
T = Trace of Precipitation, MM = Missing Value Source: Averaged Metar Reports

Daily Weather History Graph

Daily Weather History Graph

Search for Another Location

Airport or City:

Astronomy

Oct. 28, 2019 Rise Set
Actual Time 7:59 AM CDT 6:50 PM CDT
Civil Twilight 7:33 AM CDT 7:16 PM CDT
Nautical Twilight 7:03 AM CDT 7:46 PM CDT
Astronomical Twilight 6:33 AM CDT 8:16 PM CDT
Moon 8:24 AM CDT (10/28) 7:37 PM CDT (10/28)
Length of Visible Light 11h 42m
Length of Day
10h 50m
New Moon, 0% of the Moon is Illuminated
Oct 28
New Moon
Nov 4
First Quarter
Nov 12
Full
Nov 19
Last Quarter
Nov 26
New

Hourly Weather History & Observations

Time (CDT) Temp. Windchill Dew Point Humidity Pressure Visibility Wind Dir Wind Speed Gust Speed Precip Events Conditions
12:15 AM 40.3 °F 34.9 °F 31.8 °F 72% 30.11 in 10.0 mi NNE 8.1 mph - N/A   Overcast
12:35 AM 40.1 °F 34.1 °F 31.8 °F 72% 30.11 in 10.0 mi NNE 9.2 mph - N/A   Overcast
12:55 AM 39.7 °F 33.7 °F 32.0 °F 74% 30.11 in 10.0 mi NNE 9.2 mph - N/A   Overcast
1:15 AM 39.2 °F 33.6 °F 31.6 °F 74% 30.12 in 10.0 mi NNE 8.1 mph - N/A   Overcast
1:35 AM 39.2 °F 33.6 °F 31.3 °F 73% 30.11 in 10.0 mi NNE 8.1 mph - N/A   Overcast
1:55 AM 38.5 °F 33.4 °F 31.1 °F 75% 30.12 in 10.0 mi NNE 6.9 mph - N/A   Overcast
2:35 AM 37.9 °F 32.7 °F 30.9 °F 76% 30.12 in 10.0 mi NNE 6.9 mph - N/A   Overcast
2:55 AM 37.6 °F 31.0 °F 30.2 °F 75% 30.12 in 10.0 mi NNE 9.2 mph - N/A   Overcast
3:15 AM 37.4 °F 31.4 °F 30.2 °F 75% 30.12 in 10.0 mi NNE 8.1 mph - N/A   Overcast
3:35 AM 36.9 °F 32.2 °F 30.4 °F 77% 30.12 in 10.0 mi NE 5.8 mph - N/A   Overcast
3:55 AM 35.2 °F 32.4 °F 30.2 °F 82% 30.12 in 10.0 mi North 3.5 mph - N/A   Overcast
4:15 AM 34.7 °F 31.8 °F 29.8 °F 82% 30.12 in 10.0 mi North 3.5 mph - N/A   Mostly Cloudy
4:35 AM 33.8 °F - 29.8 °F 85% 30.12 in 10.0 mi Calm Calm - N/A   Scattered Clouds
4:55 AM 32.5 °F - 29.3 °F 88% 30.11 in 10.0 mi Calm Calm - N/A   Scattered Clouds
5:15 AM 32.9 °F - 29.3 °F 87% 30.11 in 10.0 mi Calm Calm - N/A   Clear
5:35 AM 32.9 °F - 29.3 °F 87% 30.11 in 10.0 mi Calm Calm - N/A   Scattered Clouds
5:55 AM 32.2 °F - 29.1 °F 88% 30.12 in 10.0 mi Calm Calm - N/A   Overcast
6:15 AM 34.7 °F 28.8 °F 30.6 °F 85% 30.12 in 10.0 mi NNE 6.9 mph - N/A   Overcast
6:35 AM 34.7 °F 26.9 °F 30.0 °F 83% 30.12 in 10.0 mi NNE 10.4 mph - N/A   Overcast
6:55 AM 35.2 °F 27.1 °F 28.2 °F 76% 30.12 in 10.0 mi NNE 11.5 mph 16.1 mph N/A   Overcast
7:35 AM 34.7 °F 25.1 °F 27.3 °F 74% 30.12 in 10.0 mi NNE 15.0 mph - N/A   Overcast
7:55 AM 33.8 °F 25.8 °F 26.1 °F 73% 30.12 in 10.0 mi NE 10.4 mph - N/A   Overcast
8:15 AM 33.8 °F 26.4 °F 25.7 °F 72% 30.12 in 10.0 mi NE 9.2 mph - N/A   Overcast
8:35 AM 33.4 °F 25.4 °F 25.0 °F 71% 30.12 in 10.0 mi NE 10.4 mph - N/A   Overcast
8:55 AM 33.4 °F 24.3 °F 24.6 °F 70% 30.12 in 10.0 mi NNE 12.7 mph - N/A   Overcast
9:15 AM 33.4 °F 24.3 °F 24.3 °F 69% 30.12 in 10.0 mi NE 12.7 mph - N/A   Overcast
9:35 AM 33.4 °F 24.8 °F 23.9 °F 68% 30.13 in 10.0 mi NE 11.5 mph - N/A   Overcast
9:55 AM 33.4 °F 23.9 °F 23.7 °F 68% 30.14 in 10.0 mi NNE 13.8 mph 17.3 mph N/A   Overcast
10:15 AM 33.8 °F 25.3 °F 23.7 °F 67% 30.13 in 10.0 mi NE 11.5 mph - N/A   Overcast
10:35 AM 33.8 °F 24.8 °F 23.5 °F 66% 30.13 in 10.0 mi NE 12.7 mph - N/A   Overcast
10:55 AM 34.0 °F 25.5 °F 23.0 °F 64% 30.13 in 10.0 mi NE 11.5 mph - N/A   Overcast
11:15 AM 34.7 °F 26.9 °F 22.8 °F 62% 30.12 in 10.0 mi NNE 10.4 mph - N/A   Overcast
11:35 AM 34.7 °F 28.1 °F 22.6 °F 61% 30.10 in 10.0 mi ENE 8.1 mph - N/A   Overcast
11:55 AM 34.7 °F 28.8 °F 22.5 °F 61% 30.10 in 10.0 mi NNE 6.9 mph - N/A   Overcast
12:15 PM 35.2 °F 29.5 °F 23.0 °F 61% 30.09 in 10.0 mi NE 6.9 mph - N/A   Overcast
12:35 PM 34.9 °F 28.3 °F 23.4 °F 63% 30.08 in 10.0 mi North 8.1 mph - N/A   Overcast
12:55 PM 35.8 °F 30.9 °F 23.9 °F 62% 30.07 in 10.0 mi NNE 5.8 mph - N/A   Overcast
1:15 PM 36.0 °F 30.3 °F 23.9 °F 62% 30.07 in 10.0 mi North 6.9 mph - N/A   Overcast
1:35 PM 36.0 °F 30.3 °F 24.1 °F 62% 30.07 in 10.0 mi NNE 6.9 mph - N/A   Overcast
1:55 PM 36.5 °F 32.7 °F 24.8 °F 63% 30.06 in 10.0 mi NNE 4.6 mph - N/A   Overcast
2:15 PM 36.7 °F 32.0 °F 25.0 °F 63% 30.07 in 10.0 mi North 5.8 mph - N/A   Overcast
2:35 PM 36.7 °F 30.5 °F 24.6 °F 62% 30.06 in 10.0 mi North 8.1 mph - N/A   Overcast
2:55 PM 36.7 °F 31.2 °F 24.6 °F 62% 30.05 in 10.0 mi NNW 6.9 mph - N/A   Overcast
3:15 PM 37.4 °F 32.8 °F 24.4 °F 60% 30.03 in 10.0 mi East 5.8 mph - N/A   Overcast
3:35 PM 37.9 °F 35.5 °F 24.6 °F 59% 30.04 in 10.0 mi North 3.5 mph - N/A   Overcast
3:55 PM 38.1 °F 31.7 °F 24.6 °F 58% 30.05 in 10.0 mi NNE 9.2 mph - N/A   Overcast
4:15 PM 38.3 °F 31.4 °F 24.3 °F 57% 30.06 in 10.0 mi North 10.4 mph - N/A   Overcast
4:35 PM 38.1 °F 31.7 °F 23.7 °F 56% 30.07 in 10.0 mi North 9.2 mph - N/A   Overcast
4:55 PM 38.5 °F 31.6 °F 23.0 °F 54% 30.06 in 10.0 mi North 10.4 mph - N/A   Overcast
5:15 PM 38.5 °F 31.6 °F 22.8 °F 53% 30.07 in 10.0 mi North 10.4 mph - N/A   Overcast
5:35 PM 38.3 °F 31.4 °F 21.2 °F 50% 30.07 in 10.0 mi North 10.4 mph - N/A   Overcast
5:55 PM 38.3 °F 31.4 °F 20.7 °F 49% 30.08 in 10.0 mi North 10.4 mph - N/A   Overcast
6:15 PM 37.9 °F 29.6 °F 20.5 °F 49% 30.09 in 10.0 mi North 13.8 mph 18.4 mph N/A   Overcast
6:35 PM 37.4 °F 29.8 °F 19.4 °F 48% 30.10 in 10.0 mi North 11.5 mph - N/A   Overcast
6:55 PM 36.7 °F 29.9 °F 19.4 °F 50% 30.10 in 10.0 mi North 9.2 mph 16.1 mph N/A   Overcast
7:15 PM 35.8 °F 27.8 °F 20.8 °F 55% 30.12 in 10.0 mi North 11.5 mph - N/A   Overcast
7:35 PM 35.1 °F 27.9 °F 20.5 °F 55% 30.12 in 10.0 mi North 9.2 mph 18.4 mph N/A   Overcast
7:55 PM 34.7 °F 26.4 °F 20.5 °F 56% 30.12 in 10.0 mi North 11.5 mph - N/A   Overcast
8:15 PM 34.7 °F 27.5 °F 20.1 °F 55% 30.12 in 10.0 mi NNE 9.2 mph - N/A   Overcast
8:35 PM 34.7 °F 28.8 °F 20.3 °F 56% 30.13 in 10.0 mi NNE 6.9 mph - N/A   Overcast
8:55 PM 34.7 °F 28.8 °F 20.8 °F 57% 30.12 in 10.0 mi NNE 6.9 mph - N/A   Overcast
9:15 PM 33.8 °F 27.7 °F 20.3 °F 58% 30.14 in 10.0 mi NNE 6.9 mph - N/A   Overcast
9:35 PM 33.4 °F 28.1 °F 20.3 °F 59% 30.14 in 10.0 mi NNE 5.8 mph - N/A   Overcast
9:55 PM 33.4 °F 30.4 °F 20.7 °F 59% 30.15 in 10.0 mi NNE 3.5 mph - N/A   Overcast
10:15 PM 33.4 °F 27.3 °F 20.3 °F 59% 30.16 in 10.0 mi NNE 6.9 mph - N/A   Overcast
10:35 PM 33.4 °F 28.1 °F 20.7 °F 59% 30.16 in 10.0 mi NNE 5.8 mph - N/A   Overcast
10:55 PM 32.7 °F 27.3 °F 21.7 °F 64% 30.17 in 10.0 mi NNE 5.8 mph - N/A   Overcast
11:15 PM 32.2 °F 26.7 °F 21.9 °F 66% 30.16 in 10.0 mi NNE 5.8 mph - N/A   Overcast
11:35 PM 31.6 °F 28.3 °F 22.1 °F 68% 30.16 in 10.0 mi NNE 3.5 mph - N/A   Overcast
11:55 PM 30.7 °F 24.9 °F 21.7 °F 69% 30.17 in 10.0 mi NNE 5.8 mph - N/A   Overcast